SCP
0 0 0 0 0 0 0 0 0 0 0 0 0 0 0 0 0 1 2 2 1 1 1 1 0 0 0 1 1 1 2 1 1 1 1 0 0 0 0 0 0 0 0 0
0 0 0 0 0 0 0 0 0 0 0 0 0 0 0 0 1 1 2 2 2 1 1 1 1 0 0 1 1 1 1 1 1 1 0 0 0 0 0 0 0 0 0 0
0 0 0 0 0 0 0 0 0 0 0 0 0 0 0 0 1 2 3 3 3 2 2 2 1 1 0 1 1 1 1 0 0 0 0 0 0 0 0 0 0 0 0 0
0 0 0 0 0 0 0 0 0 0 0 0 0 0 0 1 1 2 3 3 3 2 2 2 1 1 0 1 0 0 0 0 0 0 0 0 0 0 0 0 0 0 0 0
0 0 0 0 0 0 0 0 0 0 0 0 0 0 0 1 1 2 2 2 2 1 1 1 1 1 0 0 0 0 0 0 0 0 0 0 0 0 0 0 0 0 0 0
0 0 0 0 0 0 0 0 0 0 0 0 0 0 0 0 1 2 2 2 1 1 1 1 0 0 0 0 0 0 0 0 0 0 0 0 0 0 0 0 0 0 0 0
0 0 0 0 0 0 0 0 0 0 0 0 0 0 0 0 1 2 2 1 1 1 0 0 0 0 0 0 0 0 0 0 0 0 0 0 0 0 0 0 0 0 0 0
0 0 0 0 0 0 0 0 0 0 0 0 0 0 0 0 1 1 1 1 1 0 0 0 0 0 0 0 0 0 0 0 0 0 0 0 0 0 0 0 0 0 0 0
0 0 0 0 0 0 0 0 0 0 0 0 0 0 0 1 1 1 1 1 0 0 0 0 0 0 0 0 0 0 0 0 0 0 0 0 0 0 0 0 0 0 0 0
0 0 0 0 0 0 0 0 0 0 0 0 0 0 0 1 1 1 1 0 0 0 0 0 0 0 0 0 0 0 0 0 0 0 0 0 0 0 0 0 0 0 0 0
0 0 0 0 0 0 0 0 0 0 0 0 0 0 0 1 1 1 0 0 0 0 0 0 0 0 0 0 0 0 0 0 0 0 0 0 0 0 0 0 0 0 0 0
0 0 0 0 0 0 0 0 0 0 0 0 0 0 1 1 1 0 0 0 0 0 0 0 0 0 0 0 0 0 0 0 0 0 0 0 0 0 0 0 0 0 0 0
0 0 0 0 0 0 0 0 0 0 0 0 0 0 1 1 0 0 0 0 0 0 0 0 0 0 0 0 0 0 0 0 0 0 0 0 0 0 0 0 0 0 0 0
0 0 0 0 0 0 0 0 0 0 0 0 0 1 1 1 0 0 0 0 0 0 0 0 0 0 0 0 0 0 0 0 0 0 0 0 0 0 0 0 0 0 0 0
0 0 0 0 0 0 0 0 0 0 0 0 0 1 1 1 0 0 0 0 0 0 0 0 0 0 0 0 0 0 0 0 0 0 0 0 0 0 0 0 0 0 0 0
0 0 0 0 0 0 0 0 0 0 0 0 1 1 1 0 0 0 0 0 0 0 0 0 0 0 0 0 0 0 0 0 0 0 0 0 0 0 0 0 0 0 0 0
0 0 0 0 0 0 0 0 0 0 0 0 1 1 1 0 0 0 0 0 0 0 0 0 0 0 0 0 0 0 0 0 0 0 0 0 0 0 0 0 0 0 0 0
0 0 0 0 0 0 0 0 0 0 0 0 1 1 0 0 0 0 0 0 0 0 0 0 0 0 0 0 0 0 0 0 0 0 0 0 0 0 0 0 0 0 0 0
0 0 0 0 0 0 0 0 0 0 0 0 0 0 0 0 0 0 0 0 0 0 0 0 0 0 0 0 0 0 0 0 0 0 0 0 0 0 0 0 0 0 0 0
0 0 0 0 0 0 0 0 0 0 0 0 0 0 0 0 0 0 0 0 0 0 0 0 0 0 0 0 0 0 0 0 0 0 0 0 0 0 0 0 0 0 0 0
0 0 0 0 0 0 0 0 0 0 0 0 0 0 0 0 0 0 0 0 0 0 0 0 0 0 0 0 0 0 0 0 0 0 0 0 0 0 0 0 0 0 0 0
0 0 0 0 0 0 0 0 0 0 0 0 0 0 0 0 0 0 0 0 0 0 0 0 0 0 0 0 0 0 -0 -0 0 0 0 0 0 0 0 0 0 0 0 0
0 0 0 0 0 0 0 0 0 0 0 0 0 0 0 0 0 0 0 0 0 0 0 0 0 0 0 0 0 0 -0 -0 0 0 0 0 0 0 0 0 0 0 0 0
0 0 0 0 0 0 0 0 0 0 0 0 0 0 0 0 0 0 0 0 0 0 0 0 0 0 0 0 -0 -0 0 0 0 0 0 0 0 0 0 0 0 0 0 0
0 0 0 0 0 0 0 0 0 0 0 0 0 0 0 0 0 0 0 0 0 0 0 0 0 0 0 0 -0 0 0 0 0 0 0 0 0 0 0 0 0 0 0 0
0 0 0 0 0 0 0 0 0 0 0 0 0 0 0 0 0 0 0 0 0 0 0 0 0 0 0 0 -0 0 0 0 0 0 0 0 0 0 0 0 0 0 0 0
Wind_Speed
2 2 6 8 8 8 6 7 10 15 12 3 4 8 9 11 15 13 11 10 10 8 7 6 6 4 2 2 2 1 4 7 6 4 4 4 4 4 5 6 7 7 7 7
1 7 12 10 8 7 8 9 14 15 8 2 7 10 8 7 12 12 13 13 13 13 8 6 4 3 3 4 5 7 7 8 7 4 3 4 4 4 5 4 6 8 8 8
8 13 9 9 10 8 11 10 14 14 6 5 7 7 6 5 8 11 12 13 12 11 12 10 10 8 8 6 7 9 11 11 10 8 6 7 7 6 5 5 4 5 6 6
9 13 11 11 12 12 13 15 12 9 3 3 6 5 3 4 7 9 10 10 11 10 10 10 11 10 10 9 9 11 11 9 8 9 9 8 4 3 2 2 2 3 4 5
12 8 9 11 16 13 14 16 10 5 3 2 1 4 5 7 7 8 9 11 9 9 9 10 10 8 9 10 10 10 10 9 7 7 6 5 4 2 2 3 5 6 6 7
14 10 10 14 15 12 13 5 0 3 3 4 5 6 8 13 16 17 14 13 11 8 9 10 10 9 8 9 9 8 10 8 7 6 6 6 6 5 5 4 4 4 4 4
11 12 7 7 10 11 4 4 3 3 4 6 6 4 9 15 16 19 18 15 13 11 10 10 8 7 8 8 7 7 10 8 7 7 8 8 7 7 6 4 4 4 4 4
10 15 10 10 8 9 5 8 10 10 9 7 2 3 7 11 16 16 15 14 14 11 9 9 7 6 8 9 7 7 8 7 7 8 8 7 7 5 5 5 4 4 3 3
13 20 17 11 7 5 4 6 10 8 4 3 2 3 6 8 17 20 19 18 15 13 12 11 9 7 9 10 7 7 8 8 8 7 7 7 6 6 5 4 3 2 2 3
9 16 19 11 6 8 8 8 5 4 8 7 3 5 11 15 17 19 19 17 17 15 13 11 8 8 10 9 6 7 8 7 6 6 6 5 5 4 4 4 4 4 3 3
1 5 13 6 7 12 4 4 4 4 5 7 5 8 14 23 22 20 16 17 18 15 12 10 10 10 11 8 7 6 6 6 7 6 4 4 4 3 2 2 4 5 5 4
4 2 3 5 5 6 6 6 9 8 6 5 6 8 9 19 18 18 17 16 14 12 10 11 10 9 8 7 6 7 6 6 6 5 4 3 3 3 3 4 5 4 5 5
7 4 6 10 6 6 3 2 1 5 6 6 4 6 2 12 13 14 16 13 11 12 13 10 6 6 7 7 6 7 6 5 4 4 3 3 3 3 4 4 3 2 3 4
8 3 3 4 3 2 5 7 3 3 1 3 1 1 2 10 14 14 15 15 15 14 14 13 6 4 6 7 6 6 5 4 3 2 2 3 4 3 4 3 4 4 4 5
8 4 4 4 5 2 2 2 3 2 3 5 4 6 4 8 11 11 12 13 12 10 10 13 10 5 7 7 5 5 4 3 3 3 4 4 5 4 4 4 5 5 3 4
7 4 7 6 5 6 5 3 4 1 2 4 6 5 7 12 14 13 11 12 11 9 5 9 9 7 7 5 4 4 3 3 3 4 4 4 4 4 4 6 6 5 4 5
1 4 6 5 6 6 6 5 3 4 6 9 8 13 20 16 17 17 16 16 13 10 6 7 8 8 6 4 3 1 2 4 3 2 3 3 4 5 7 7 7 6 5 5
3 1 2 4 2 4 4 3 3 7 2 4 13 20 22 20 14 12 16 19 16 13 8 6 6 7 5 3 2 1 3 5 4 3 5 6 6 7 9 7 7 7 5 6
1 3 3 3 4 6 5 3 1 5 3 2 12 15 17 19 19 9 9 14 17 14 9 7 7 6 5 3 1 2 5 5 5 5 7 7 7 9 9 9 8 6 5 3
6 3 2 2 3 6 5 4 4 3 1 3 14 18 20 19 13 9 11 14 12 12 9 9 7 5 4 2 2 3 5 5 5 6 7 7 7 7 8 8 6 4 3 3
7 4 0 3 5 7 3 4 3 4 6 11 14 8 4 4 12 16 14 12 10 9 10 9 6 5 3 4 3 3 3 3 5 6 6 7 7 6 5 6 5 7 6 6
1 2 3 2 4 7 2 1 4 5 7 12 16 18 11 15 16 15 14 11 8 9 9 7 5 4 5 4 3 2 2 4 5 5 6 8 7 8 8 10 9 8 7 6
2 3 3 5 6 5 6 3 2 9 16 16 18 22 23 17 15 15 13 10 8 8 6 5 5 4 4 3 2 1 3 4 5 6 7 6 9 9 7 7 6 5 5 4
4 4 5 5 5 6 8 2 7 9 12 14 16 17 19 18 15 13 11 8 6 5 5 4 4 3 0 1 3 2 2 4 6 6 6 6 9 7 5 4 4 4 4 4
6 4 6 7 5 7 6 4 7 12 16 12 15 16 17 17 15 13 9 7 5 4 3 4 4 3 1 1 2 2 2 5 6 5 6 7 6 5 3 3 3 2 1 2
7 7 7 9 7 8 4 3 11 14 16 15 17 16 13 14 12 11 7 6 4 4 3 3 2 2 3 1 2 3 3 6 6 6 7 5 4 2 3 3 3 5 6 8
Wind_Direction
209 171 226 231 219 223 236 259 272 277 282 279 228 131 109 117 109 114 116 117 118 121 131 133 131 141 106 26 344 39 89 95 99 83 86 88 60 38 48 38 28 25 20 16
304 236 232 224 232 236 246 263 273 279 278 104 91 77 71 111 123 122 120 120 122 123 132 143 144 121 103 79 64 65 69 60 52 60 66 79 79 58 48 40 31 24 23 18
202 242 235 234 248 236 245 232 250 259 281 88 97 58 51 52 94 105 113 121 119 124 131 130 133 131 119 104 87 81 71 62 54 52 59 55 47 37 31 21 22 16 29 33
223 247 243 243 245 237 254 246 233 243 230 195 168 156 184 175 120 116 118 118 118 112 108 110 116 119 117 112 101 91 82 73 65 63 70 73 73 62 24 1 10 3 10 10
232 234 240 246 244 235 237 248 231 225 234 251 137 159 201 172 156 149 131 124 122 117 116 112 111 111 110 109 101 94 90 83 79 81 87 89 81 67 18 7 9 0 4 24
234 231 219 238 250 236 234 226 349 56 74 279 236 213 211 192 174 158 147 137 129 117 110 106 104 95 84 86 92 95 92 82 74 74 72 72 70 50 43 28 24 12 11 18
249 253 243 226 251 265 196 192 255 282 268 251 247 219 241 197 158 153 146 141 139 135 125 118 114 107 102 89 82 82 82 72 67 65 59 62 65 63 57 39 36 27 11 0
216 248 244 247 211 235 213 173 188 209 234 262 290 292 308 145 132 130 133 138 140 138 130 125 130 130 109 93 85 81 81 72 60 66 71 68 60 52 41 33 33 29 8 340
217 241 252 230 228 176 233 186 195 174 186 210 172 102 39 98 129 141 149 146 142 142 135 136 139 129 105 93 87 84 75 65 64 75 73 63 54 50 43 33 36 29 359 330
232 237 245 242 231 253 204 191 154 183 195 229 235 204 177 170 163 155 153 147 145 146 146 149 138 115 102 99 93 75 72 73 68 73 75 72 60 52 41 26 5 346 329 329
347 217 259 241 205 227 197 154 159 175 177 197 220 249 192 185 170 157 149 143 145 147 151 134 121 117 107 105 92 81 75 68 62 72 63 54 47 42 24 345 336 332 327 324
338 104 273 257 231 211 198 186 160 169 212 195 185 248 199 179 162 151 141 137 138 136 126 117 120 114 107 101 89 77 79 78 80 84 60 30 11 354 339 331 335 346 339 323
336 36 14 338 334 356 358 359 212 141 161 186 175 272 154 144 134 131 128 129 125 115 104 95 91 100 101 96 86 77 78 76 84 74 50 358 341 348 338 339 330 323 317 318
20 48 119 212 257 328 332 336 346 80 126 250 142 257 115 130 132 133 130 129 127 128 129 125 120 117 98 86 79 80 58 60 62 43 17 325 315 327 317 324 296 290 311 328
34 21 355 286 281 275 202 261 308 55 124 118 161 148 121 117 117 112 115 116 119 130 139 125 128 127 91 82 77 69 56 33 16 356 337 315 295 303 311 297 277 280 316 319
9 1 1 333 348 339 294 221 191 173 171 152 130 89 115 119 122 119 122 114 112 118 122 114 119 110 98 94 79 52 10 354 345 323 311 314 314 317 297 273 268 287 309 298
327 34 6 310 340 337 297 299 199 182 184 161 161 158 141 143 145 147 141 125 128 128 132 123 119 118 114 117 113 110 333 321 299 270 278 297 304 306 281 268 277 278 272 266
188 147 208 262 321 236 241 324 89 94 50 148 141 152 153 145 129 121 128 133 141 133 133 117 116 116 136 147 138 354 300 268 230 239 265 271 269 264 264 271 276 265 252 252
105 159 209 225 207 257 280 331 333 101 38 112 131 128 124 116 99 96 131 130 128 131 129 128 138 142 153 142 148 269 267 246 251 268 274 272 262 259 265 268 269 270 260 289
47 78 153 226 229 243 234 291 319 102 52 123 135 141 140 135 127 139 128 112 110 112 117 127 136 126 117 196 237 263 257 246 264 281 287 289 281 271 270 277 296 286 46 52
353 1 27 206 242 256 226 266 306 214 180 125 112 99 133 109 124 133 123 116 119 115 116 120 122 133 185 233 235 251 263 268 279 305 319 324 332 340 4 21 20 51 58 51
293 306 278 239 230 258 249 234 200 170 102 107 103 96 102 111 119 125 125 127 125 112 116 130 143 184 223 231 214 237 274 288 317 337 349 352 18 52 63 67 54 51 47 41
234 222 251 243 243 273 292 296 138 141 129 135 140 143 140 136 134 130 126 122 112 119 150 165 174 202 232 233 198 241 292 321 356 9 12 27 61 60 60 64 56 48 42 32
279 302 276 269 281 311 298 141 135 124 118 130 134 133 129 129 127 115 108 113 128 144 139 145 149 154 127 121 165 209 340 25 36 25 31 59 76 73 55 50 56 56 41 19
244 293 280 259 235 294 332 168 143 120 115 115 112 120 120 120 124 124 128 136 140 132 116 122 109 90 28 291 284 336 37 53 46 46 58 69 85 83 73 55 37 37 5 49
209 205 223 236 190 160 192 136 125 116 110 112 108 103 107 117 121 122 128 134 139 132 110 90 86 51 12 8 23 37 77 78 77 65 65 80 93 77 49 38 359 340 339 345